Location: Lane
(33.5226°N, 79.8788°W)
Time: 22:32:34
(UTC+00:00)

Vanguard 2 Rocket - Pass Details

Date: 07 October 2022
Orbit: 555 x 3321 km, 32.9° (Epoch: 28 November)

Event Time Altitude Azimuth Distance (km) Brightness Sun altitude
Rises 04:09:38 0° 260° (W) 7,052 11.6 -58.9°
Reaches altitude 10° 04:14:48 10° 260° (W) 5,774 11.0 -59.4°
Enters shadow 04:19:39 22° 260° (W) 4,516 10.3 -59.8°
